| time (UTC) | temp C | wind direction | speed KPH | gust KPH | rain 1hr cm | rain 24hr cm | rain mn cm | humidity % | barometer mb |
| 20260505035433 | 15 | 29 | 0.0 | 1.6 | 0.00 | 0.00 | 0.00 | 70 | 1024.4 |
| 20260505034930 | 15 | 45 | 3.2 | 4.8 | 0.00 | 0.00 | 0.00 | 69 | 1024.4 |
| 20260505034426 | 16 | 51 | 3.2 | 3.2 | 0.00 | 0.00 | 0.00 | 67 | 1024.3 |
| 20260505033924 | 16 | 46 | 3.2 | 3.2 | 0.00 | 0.00 | 0.00 | 65 | 1024.2 |
| 20260505033420 | 16 | 58 | 3.2 | 3.2 | 0.00 | 0.00 | 0.00 | 64 | 1024.2 |
| 20260505032919 | 17 | 352 | 0.0 | 3.2 | 0.00 | 0.00 | 0.00 | 63 | 1024.3 |
| 20260505032415 | 17 | 3 | 1.6 | 3.2 | 0.00 | 0.00 | 0.00 | 63 | 1024.1 |
| 20260505031912 | 17 | 38 | 0.0 | 3.2 | 0.00 | 0.00 | 0.00 | 62 | 1024.1 |
| 20260505031409 | 17 | 326 | 0.0 | 4.8 | 0.00 | 0.00 | 0.00 | 61 | 1023.9 |
| 20260505030906 | 17 | 36 | 1.6 | 3.2 | 0.00 | 0.00 | 0.00 | 59 | 1024.1 |
| 20260505030402 | 18 | 37 | 0.0 | 1.6 | 0.00 | 0.00 | 0.00 | 58 | 1024.1 |
| 20260505025857 | 18 | 36 | 0.0 | 1.6 | 0.00 | 0.00 | 0.00 | 56 | 1023.9 |
| 20260505025355 | 18 | 37 | 3.2 | 3.2 | 0.00 | 0.00 | 0.00 | 55 | 1023.8 |
| 20260505024854 | 19 | 17 | 1.6 | 3.2 | 0.00 | 0.00 | 0.00 | 52 | 1023.7 |
| 20260505024351 | 20 | 309 | 0.0 | 3.2 | 0.00 | 0.00 | 0.00 | 49 | 1023.9 |
| 20260505023848 | 20 | 44 | 0.0 | 3.2 | 0.00 | 0.00 | 0.00 | 48 | 1023.9 |
| 20260505023345 | 20 | 311 | 0.0 | 4.8 | 0.00 | 0.00 | 0.00 | 48 | 1023.9 |
| 20260505022842 | 20 | 103 | 1.6 | 9.7 | 0.00 | 0.00 | 0.00 | 46 | 1023.8 |
| 20260505022339 | 21 | 253 | 0.0 | 6.4 | 0.00 | 0.00 | 0.00 | 46 | 1023.9 |
| 20260505021836 | 21 | 354 | 3.2 | 6.4 | 0.00 | 0.00 | 0.00 | 47 | 1023.7 |
| 20260505021332 | 21 | 235 | 0.0 | 9.7 | 0.00 | 0.00 | 0.00 | 48 | 1023.7 |
| 20260505020828 | 22 | 327 | 4.8 | 4.8 | 0.00 | 0.00 | 0.00 | 46 | 1023.7 |
| 20260505020324 | 22 | 356 | 0.0 | 3.2 | 0.00 | 0.00 | 0.00 | 45 | 1023.7 |
| 20260505015821 | 22 | 72 | 3.2 | 3.2 | 0.00 | 0.00 | 0.00 | 45 | 1023.7 |
| 20260505015318 | 23 | 307 | 3.2 | 4.8 | 0.00 | 0.00 | 0.00 | 43 | 1023.6 |
| 20260505014816 | 23 | 49 | 3.2 | 6.4 | 0.00 | 0.00 | 0.00 | 42 | 1023.5 |
| 20260505014312 | 24 | 338 | 4.8 | 9.7 | 0.00 | 0.00 | 0.00 | 40 | 1023.7 |
| 20260505013809 | 25 | 56 | 0.0 | 3.2 | 0.00 | 0.00 | 0.00 | 38 | 1023.6 |
| 20260505013306 | 25 | 46 | 6.4 | 6.4 | 0.00 | 0.00 | 0.00 | 36 | 1023.7 |
| 20260505012805 | 25 | 17 | 4.8 | 6.4 | 0.00 | 0.00 | 0.00 | 34 | 1023.6 |
| 20260505012304 | 25 | 300 | 3.2 | 4.8 | 0.00 | 0.00 | 0.00 | 34 | 1023.6 |
| 20260505011757 | 25 | 42 | 4.8 | 6.4 | 0.00 | 0.00 | 0.00 | 35 | 1023.7 |
| 20260505011255 | 25 | 292 | 3.2 | 6.4 | 0.00 | 0.00 | 0.00 | 38 | 1023.5 |
| 20260505010750 | 25 | 175 | 1.6 | 9.7 | 0.00 | 0.00 | 0.00 | 38 | 1023.6 |
| 20260505010247 | 25 | 346 | 4.8 | 9.7 | 0.00 | 0.00 | 0.00 | 38 | 1023.7 |
| 20260505005743 | 25 | 42 | 3.2 | 11.3 | 0.00 | 0.00 | 0.00 | 36 | 1023.7 |
| 20260505005240 | 25 | 345 | 8.0 | 14.5 | 0.00 | 0.00 | 0.00 | 36 | 1023.8 |
| 20260505004737 | 26 | 223 | 9.7 | 9.7 | 0.00 | 0.00 | 0.00 | 35 | 1023.7 |
| 20260505004233 | 25 | 19 | 0.0 | 6.4 | 0.00 | 0.00 | 0.00 | 37 | 1023.8 |
| 20260505003731 | 25 | 17 | 3.2 | 12.9 | 0.00 | 0.00 | 0.00 | 36 | 1024.0 |
| 20260505003229 | 26 | 15 | 6.4 | 9.7 | 0.00 | 0.00 | 0.00 | 36 | 1023.6 |
| 20260505002725 | 25 | 343 | 11.3 | 14.5 | 0.00 | 0.00 | 0.00 | 38 | 1023.7 |
| 20260505002222 | 25 | 38 | 1.6 | 16.1 | 0.00 | 0.00 | 0.00 | 41 | 1023.7 |
| 20260505001720 | 25 | 74 | 1.6 | 8.0 | 0.00 | 0.00 | 0.00 | 38 | 1023.6 |
| 20260505001217 | 25 | 261 | 3.2 | 9.7 | 0.00 | 0.00 | 0.00 | 37 | 1023.8 |
| 20260505000714 | 26 | 264 | 3.2 | 12.9 | 0.00 | 0.00 | 0.00 | 37 | 1023.9 |
| 20260505000212 | 26 | 345 | 0.0 | 6.4 | 0.00 | 0.00 | 0.00 | 39 | 1023.7 |
| 20260504235708 | 26 | 67 | 1.6 | 14.5 | 0.00 | 0.00 | 0.00 | 38 | 1023.7 |
| 20260504235204 | 26 | 299 | 1.6 | 6.4 | 0.00 | 0.00 | 0.00 | 36 | 1023.6 |
| 20260504234702 | 26 | 250 | 6.4 | 6.4 | 0.00 | 0.00 | 0.00 | 37 | 1023.9 |
| 20260504234159 | 26 | 319 | 3.2 | 12.9 | 0.00 | 0.00 | 0.00 | 35 | 1023.9 |
| 20260504233654 | 26 | 38 | 3.2 | 4.8 | 0.00 | 0.00 | 0.00 | 34 | 1023.9 |
| 20260504233150 | 26 | 19 | 3.2 | 6.4 | 0.00 | 0.00 | 0.00 | 38 | 1023.8 |
| 20260504232648 | 26 | 292 | 4.8 | 11.3 | 0.00 | 0.00 | 0.00 | 36 | 1023.9 |
| 20260504232145 | 25 | 348 | 14.5 | 14.5 | 0.00 | 0.00 | 0.00 | 36 | 1024.0 |
| 20260504231642 | 26 | 75 | 4.8 | 11.3 | 0.00 | 0.00 | 0.00 | 38 | 1024.1 |
| 20260504231138 | 26 | 27 | 3.2 | 11.3 | 0.00 | 0.00 | 0.00 | 38 | 1024.1 |
| 20260504230634 | 26 | 34 | 9.7 | 9.7 | 0.00 | 0.00 | 0.00 | 34 | 1023.9 |
| 20260504230133 | 26 | 100 | 3.2 | 9.7 | 0.00 | 0.00 | 0.00 | 36 | 1024.1 |
| 20260504225631 | 26 | 311 | 3.2 | 8.0 | 0.00 | 0.00 | 0.00 | 34 | 1024.2 |
| 20260504225127 | 26 | 207 | 6.4 | 8.0 | 0.00 | 0.00 | 0.00 | 37 | 1023.9 |
| 20260504224624 | 26 | 244 | 4.8 | 9.7 | 0.00 | 0.00 | 0.00 | 34 | 1024.1 |
| 20260504224121 | 26 | 359 | 11.3 | 11.3 | 0.00 | 0.00 | 0.00 | 36 | 1024.0 |
| 20260504223618 | 26 | 338 | 3.2 | 12.9 | 0.00 | 0.00 | 0.00 | 33 | 1024.2 |
| 20260504223114 | 26 | 135 | 1.6 | 6.4 | 0.00 | 0.00 | 0.00 | 33 | 1024.1 |
| 20260504222611 | 26 | 31 | 3.2 | 11.3 | 0.00 | 0.00 | 0.00 | 40 | 1024.2 |
| 20260504222108 | 26 | 70 | 1.6 | 3.2 | 0.00 | 0.00 | 0.00 | 35 | 1024.2 |
| 20260504221605 | 25 | 9 | 12.9 | 14.5 | 0.00 | 0.00 | 0.00 | 39 | 1024.4 |
| 20260504221102 | 26 | 340 | 4.8 | 9.7 | 0.00 | 0.00 | 0.00 | 36 | 1024.4 |
| 20260504220558 | 25 | 66 | 4.8 | 11.3 | 0.00 | 0.00 | 0.00 | 35 | 1024.3 |
| 20260504220055 | 25 | 208 | 3.2 | 6.4 | 0.00 | 0.00 | 0.00 | 37 | 1024.4 |
| 20260504215552 | 25 | 236 | 8.0 | 9.7 | 0.00 | 0.00 | 0.00 | 35 | 1024.7 |
| 20260504215050 | 25 | 165 | 3.2 | 14.5 | 0.00 | 0.00 | 0.00 | 37 | 1024.6 |
| 20260504214545 | 25 | 271 | 4.8 | 6.4 | 0.00 | 0.00 | 0.00 | 36 | 1024.6 |
| 20260504214042 | 25 | 12 | 3.2 | 6.4 | 0.00 | 0.00 | 0.00 | 38 | 1024.6 |
| 20260504213538 | 25 | 246 | 6.4 | 9.7 | 0.00 | 0.00 | 0.00 | 41 | 1024.9 |
| 20260504213036 | 25 | 66 | 3.2 | 12.9 | 0.00 | 0.00 | 0.00 | 37 | 1024.8 |
| 20260504212531 | 25 | 126 | 3.2 | 6.4 | 0.00 | 0.00 | 0.00 | 38 | 1024.8 |
| 20260504212029 | 25 | 358 | 3.2 | 6.4 | 0.00 | 0.00 | 0.00 | 39 | 1024.6 |
| 20260504211526 | 25 | 2 | 4.8 | 6.4 | 0.00 | 0.00 | 0.00 | 36 | 1024.8 |
| 20260504211023 | 25 | 216 | 8.0 | 8.0 | 0.00 | 0.00 | 0.00 | 37 | 1024.9 |
| 20260504210520 | 25 | 34 | 4.8 | 6.4 | 0.00 | 0.00 | 0.00 | 35 | 1024.8 |
| 20260504210016 | 25 | 15 | 12.9 | 19.3 | 0.00 | 0.00 | 0.00 | 36 | 1024.7 |
| 20260504205514 | 25 | 320 | 3.2 | 8.0 | 0.00 | 0.00 | 0.00 | 44 | 1024.8 |
| 20260504205012 | 25 | 354 | 9.7 | 14.5 | 0.00 | 0.00 | 0.00 | 37 | 1024.8 |
| 20260504204510 | 25 | 35 | 4.8 | 6.4 | 0.00 | 0.00 | 0.00 | 39 | 1025.0 |
| 20260504204009 | 25 | 296 | 4.8 | 8.0 | 0.00 | 0.00 | 0.00 | 38 | 1024.9 |
| 20260504203506 | 24 | 25 | 8.0 | 17.7 | 0.00 | 0.00 | 0.00 | 38 | 1024.9 |
| 20260504203002 | 24 | 180 | 4.8 | 4.8 | 0.00 | 0.00 | 0.00 | 37 | 1025.0 |
| 20260504202458 | 23 | 227 | 4.8 | 8.0 | 0.00 | 0.00 | 0.00 | 39 | 1024.9 |
| 20260504201955 | 23 | 30 | 12.9 | 12.9 | 0.00 | 0.00 | 0.00 | 38 | 1025.0 |
| 20260504201453 | 24 | 29 | 9.7 | 11.3 | 0.00 | 0.00 | 0.00 | 38 | 1025.0 |
| 20260504200950 | 23 | 258 | 3.2 | 8.0 | 0.00 | 0.00 | 0.00 | 38 | 1025.2 |
| 20260504200447 | 24 | 9 | 4.8 | 8.0 | 0.00 | 0.00 | 0.00 | 39 | 1025.2 |
| 20260504195943 | 24 | 0 | 4.8 | 8.0 | 0.00 | 0.00 | 0.00 | 37 | 1025.2 |
| 20260504195439 | 23 | 25 | 3.2 | 6.4 | 0.00 | 0.00 | 0.00 | 44 | 1025.2 |
| 20260504194936 | 23 | 250 | 11.3 | 14.5 | 0.00 | 0.00 | 0.00 | 39 | 1025.2 |
| 20260504194432 | 23 | 157 | 3.2 | 6.4 | 0.00 | 0.00 | 0.00 | 44 | 1025.1 |
| 20260504193928 | 23 | 192 | 8.0 | 8.0 | 0.00 | 0.00 | 0.00 | 42 | 1025.2 |
| 20260504193426 | 23 | 305 | 1.6 | 6.4 | 0.00 | 0.00 | 0.00 | 45 | 1024.8 |
| 20260504192924 | 23 | 299 | 6.4 | 14.5 | 0.00 | 0.00 | 0.00 | 46 | 1025.0 |
| 20260504192421 | 23 | 302 | 4.8 | 11.3 | 0.00 | 0.00 | 0.00 | 47 | 1025.0 |
| 20260504191920 | 23 | 203 | 8.0 | 9.7 | 0.00 | 0.00 | 0.00 | 45 | 1025.1 |
| 20260504191418 | 23 | 37 | 3.2 | 6.4 | 0.00 | 0.00 | 0.00 | 44 | 1025.1 |
| 20260504190913 | 23 | 115 | 8.0 | 11.3 | 0.00 | 0.00 | 0.00 | 42 | 1025.0 |
| 20260504190409 | 23 | 87 | 3.2 | 3.2 | 0.00 | 0.00 | 0.00 | 44 | 1024.9 |
| 20260504185906 | 23 | 159 | 1.6 | 14.5 | 0.00 | 0.00 | 0.00 | 44 | 1024.9 |
| 20260504185403 | 23 | 35 | 1.6 | 6.4 | 0.00 | 0.00 | 0.00 | 45 | 1025.2 |
| 20260504184858 | 23 | 238 | 1.6 | 9.7 | 0.00 | 0.00 | 0.00 | 44 | 1025.2 |
| 20260504184354 | 22 | 142 | 6.4 | 11.3 | 0.00 | 0.00 | 0.00 | 49 | 1025.0 |
| 20260504183850 | 23 | 126 | 12.9 | 14.5 | 0.00 | 0.00 | 0.00 | 44 | 1025.2 |
| 20260504183348 | 22 | 122 | 14.5 | 19.3 | 0.00 | 0.00 | 0.00 | 47 | 1025.1 |
| 20260504182845 | 22 | 114 | 4.8 | 6.4 | 0.00 | 0.00 | 0.00 | 50 | 1025.3 |
| 20260504182343 | 22 | 272 | 3.2 | 11.3 | 0.00 | 0.00 | 0.00 | 45 | 1025.3 |
| 20260504181839 | 22 | 135 | 4.8 | 9.7 | 0.00 | 0.00 | 0.00 | 44 | 1025.3 |
| 20260504181337 | 22 | 43 | 4.8 | 6.4 | 0.00 | 0.00 | 0.00 | 46 | 1025.1 |
| 20260504180836 | 22 | 18 | 6.4 | 6.4 | 0.00 | 0.00 | 0.00 | 43 | 1025.1 |
| 20260504180334 | 22 | 242 | 1.6 | 6.4 | 0.00 | 0.00 | 0.00 | 44 | 1025.4 |
| 20260504175832 | 21 | 50 | 1.6 | 3.2 | 0.00 | 0.00 | 0.00 | 46 | 1025.2 |
| 20260504175328 | 21 | 99 | 4.8 | 8.0 | 0.00 | 0.00 | 0.00 | 45 | 1025.1 |
| 20260504174827 | 21 | 86 | 3.2 | 9.7 | 0.00 | 0.00 | 0.00 | 50 | 1025.1 |
| 20260504174324 | 21 | 95 | 6.4 | 11.3 | 0.00 | 0.00 | 0.00 | 52 | 1025.3 |
| 20260504173820 | 21 | 166 | 4.8 | 6.4 | 0.00 | 0.00 | 0.00 | 48 | 1025.1 |
| 20260504173317 | 21 | 232 | 4.8 | 6.4 | 0.00 | 0.00 | 0.00 | 47 | 1025.1 |
| 20260504172814 | 21 | 334 | 3.2 | 8.0 | 0.00 | 0.00 | 0.00 | 49 | 1025.1 |
| 20260504172311 | 21 | 220 | 4.8 | 8.0 | 0.00 | 0.00 | 0.00 | 49 | 1025.1 |
| 20260504171807 | 21 | 271 | 4.8 | 6.4 | 0.00 | 0.00 | 0.00 | 49 | 1025.2 |
| 20260504171304 | 21 | 210 | 1.6 | 4.8 | 0.00 | 0.00 | 0.00 | 49 | 1025.1 |
| 20260504170801 | 21 | 252 | 4.8 | 6.4 | 0.00 | 0.00 | 0.00 | 48 | 1025.0 |
| 20260504170258 | 21 | 201 | 0.0 | 6.4 | 0.00 | 0.00 | 0.00 | 50 | 1024.9 |
| 20260504160216 | 21 | 87 | 1.6 | 3.2 | 0.00 | 0.00 | 0.00 | 52 | 1025.1 |
| 20260504151144 | 16 | 102 | 1.6 | 4.8 | 0.00 | 0.00 | 0.00 | 65 | 1024.7 |
| 20260504150642 | 15 | 109 | 3.2 | 4.8 | 0.00 | 0.00 | 0.00 | 71 | 1024.6 |
| 20260504150138 | 15 | 128 | 1.6 | 3.2 | 0.00 | 0.00 | 0.00 | 77 | 1024.6 |
| 20260504141107 | 10 | 102 | 3.2 | 3.2 | 0.00 | 0.00 | 0.00 | 94 | 1024.3 |
| 20260504140604 | 10 | 63 | 1.6 | 4.8 | 0.00 | 0.00 | 0.00 | 94 | 1024.2 |
| 20260504130528 | 9 | 81 | 3.2 | 4.8 | 0.00 | 0.00 | 0.00 | 97 | 1023.9 |
| 20260504110415 | 10 | 88 | 3.2 | 3.2 | 0.00 | 0.00 | 0.00 | 94 | 1023.9 |
| 20260504100332 | 10 | 84 | 3.2 | 3.2 | 0.00 | 0.00 | 0.00 | 94 | 1023.8 |
| 20260504081726 | 10 | 71 | 3.2 | 3.2 | 0.00 | 0.00 | 0.00 | 88 | 1024.0 |
| 20260504081222 | 10 | 63 | 3.2 | 3.2 | 0.00 | 0.00 | 0.00 | 86 | 1023.9 |
| 20260504080718 | 11 | 75 | 3.2 | 3.2 | 0.00 | 0.00 | 0.00 | 84 | 1023.9 |
| 20260504080215 | 11 | 66 | 3.2 | 4.8 | 0.00 | 0.00 | 0.00 | 83 | 1023.8 |
| 20260504070143 | 12 | 116 | 1.6 | 3.2 | 0.00 | 0.00 | 0.00 | 76 | 1024.2 |
| 20260504050531 | 13 | 62 | 3.2 | 3.2 | 0.00 | 0.00 | 0.00 | 65 | 1023.9 |
| 20260504045525 | 13 | 67 | 3.2 | 3.2 | 0.00 | 0.00 | 0.00 | 63 | 1024.1 |
| 20260504045020 | 14 | 78 | 3.2 | 3.2 | 0.00 | 0.00 | 0.00 | 62 | 1023.9 |
| 20260504044518 | 15 | 60 | 1.6 | 3.2 | 0.00 | 0.00 | 0.00 | 61 | 1024.1 |
| 20260504044015 | 15 | 117 | 1.6 | 3.2 | 0.00 | 0.00 | 0.00 | 63 | 1024.0 |
| 20260504043512 | 15 | 65 | 3.2 | 3.2 | 0.00 | 0.00 | 0.00 | 61 | 1024.0 |
| 20260504043009 | 15 | 69 | 3.2 | 3.2 | 0.00 | 0.00 | 0.00 | 65 | 1024.0 |
| 20260504042506 | 15 | 69 | 1.6 | 3.2 | 0.00 | 0.00 | 0.00 | 62 | 1024.0 |
| 20260504042003 | 15 | 71 | 3.2 | 3.2 | 0.00 | 0.00 | 0.00 | 59 | 1023.9 |
| 20260504041459 | 15 | 81 | 1.6 | 3.2 | 0.00 | 0.00 | 0.00 | 57 | 1024.0 |
| 20260504040955 | 16 | 73 | 1.6 | 3.2 | 0.00 | 0.00 | 0.00 | 57 | 1024.1 |
| 20260504040453 | 16 | 89 | 1.6 | 3.2 | 0.00 | 0.00 | 0.00 | 59 | 1023.9 |
| 20260504035948 | 16 | 60 | 0.0 | 1.6 | 0.00 | 0.00 | 0.00 | 56 | 1024.0 |